Regional Weather Roundup
Issued by NWS

Home | Current Version | Previous Version | Graphics & Text | Print | Product List | Glossary On
Versions: 1 2 3 4 5 6 7 8 9 10 11 12 13 14 15 16 17 18 19 20 21 22 23 24 25 26 27 28 29 30 31 32 33 34 35 36 37 38 39 40 41 42 43 44 45 46 47 48 49 50
000
ASUS45 KBOU 292207
RWRCO

WEATHER ROUNDUP FOR COLORADO
NATIONAL WEATHER SERVICE DENVER/BOULDER CO
300 PM MST THU JAN 29 2015

NOTE: "FAIR" INDICATES FEW OR NO CLOUDS BELOW 12000 FEET WITH NO
SIGNIFICANT WEATHER AND/OR OBSTRUCTIONS TO VISIBILITY.

COZ001>005-013-030-031-292300-
...NORTHWEST COLORADO...

CITY           SKY/WX    TMP DP  RH WIND       PRES   REMARKS
CRAIG          PTSUNNY   40  32  73 SW7       30.32F
HAYDEN         PTSUNNY   39  27  60 SW7       30.32S
MEEKER         PTSUNNY   40  27  59 CALM      30.30F
MOUNT WERNER   NOT AVBL
STEAMBOAT SPGS PTSUNNY   41  26  55 CALM      30.32S
WALDEN         SUNNY     36  23  60 W5        30.36S
$$

COZ006>008-011-292300-
...WEST CENTRAL VALLEYS...

CITY           SKY/WX    TMP DP  RH WIND       PRES   REMARKS
GRAND JUNCTION PTSUNNY   51  28  41 S8        30.27F
MONTROSE       CLOUDY    49  27  42 NW6       30.31S
EAGLE          SUNNY     48  23  37 CALM      30.31F
RIFLE          MOSUNNY   53  23  31 CALM      30.27F
DELTA          CLOUDY    52  28  40 CALM      30.30S
NUCLA          NOT AVBL
$$

COZ017>023-064>068-292300-
...SOUTHWEST COLORADO...

CITY           SKY/WX    TMP DP  RH WIND       PRES   REMARKS
DURANGO        CLOUDY    47  29  49 E6        30.34F
CORTEZ         CLOUDY    53  29  39 CALM      30.28F
PAGOSA SPRINGS CLOUDY    45  24  44 S3        30.38S
TELLURIDE      CLOUDY    41  22  46 S14G21    30.35S
WOLF CREEK PAS NOT AVBL
$$

COZ009-010-012-014-032>034-037-058>063-292300-
...CENTRAL COLORADO...

CITY           SKY/WX    TMP DP  RH WIND       PRES   REMARKS
ASPEN          MOSUNNY   44  20  38 N3        30.30F
BUENA VISTA    CLOUDY    34  24  67 E5        30.43F WCI  30
COPPER MTN     MOSUNNY   30  16  55 S16       30.41S WCI  19
BERTHOUD PASS  FAIR      19  14  79 SE17      30.43S WCI   4
COTTONWOOD PAS CLOUDY    32  27  80 SE7       30.43S WCI  26
GUNNISON       CLOUDY    28  18  64 E3        30.38F
KREMMLING      MOSUNNY   41  27  56 CALM      30.35F
LEADVILLE      MOSUNNY   26  21  81 S16       30.38S WCI  14
MONARCH PASS   CLOUDY    21  19  93 E6        30.53S WCI  14
SALIDA         CLOUDY    39  24  53 SE10G17   30.50F
SUNLIGHT       PTSUNNY   36  21  55 CALM      30.40S
WILKERSON PASS CLOUDY    23  21  93 SW5       30.45F WCI  17
$$

COZ069>075-292300-
...SAN LUIS VALLEY/SANGRE DE CRISTO MOUNTAINS...

CITY           SKY/WX    TMP DP  RH WIND       PRES   REMARKS
ALAMOSA        CLOUDY    44  24  45 S8G18     30.37F
LA VETA PASS   CLOUDY    27  19  74 N5        30.44S WCI  21
SAGUACHE       CLOUDY    37  27  65 SE3       30.40S
$$

COZ035-036-038>040-292300-
...NORTHERN COLORADO FRONT RANGE...

CITY           SKY/WX    TMP DP  RH WIND       PRES   REMARKS
DENVER INTL AP PTSUNNY   47  24  40 S10       30.41F
DMNS CITY PARK   N/A     48  25  41 E3G12     30.40S
AURORA         PTSUNNY   45  24  42 SE13      30.41F
FRONT RANGE AP NOT AVBL
ERIE MUNI ARPT SUNNY     48  23  36 S6        30.41F
BOULDER MUN AP SUNNY     46  27  46 S5        30.40F
CENTENNIAL     PTSUNNY   45  27  49 SE12      30.39F
BROOMFIELD     PTSUNNY   46  25  42 SE6       30.41F
FORT COLLINS   MOSUNNY   48  25  40 S12       30.42F
LONGMONT       MOSUNNY   51  25  37 S6        30.42F
$$

COZ041-046-047-076>085-087-088-292300-
...PIKES PEAK/PALMER DIVIDE AND SOUTHERN FOOTHILLS...

CITY           SKY/WX    TMP DP  RH WIND       PRES   REMARKS
COLO. SPRINGS  PTSUNNY   44  20  38 S16       30.44F
A. F. ACADEMY  SUNNY     42  19  40 S15       30.42F
ELLICOTT       SUNNY    N/A N/A N/A S6        30.44F
FALCON         MOSUNNY   41  22  48 S12G20    30.44F
FORT CARSON    MOSUNNY   45  20  37 S15       30.42F
LIMON          MOSUNNY   46  19  34 S5        30.44S
MONUMENT HILL  SUNNY     41  25  52 S15       30.40F
TRINIDAD       CLOUDY    42  21  43 E7        30.46S
$$

COZ042>045-048>051-090-091-292300-
...NORTHEAST COLORADO...

CITY           SKY/WX    TMP DP  RH WIND       PRES   REMARKS
GREELEY ARPT   MOSUNNY   50  25  37 SE9G16    30.40F
AKRON          SUNNY     47  16  29 NE5       30.44S
BURLINGTON     SUNNY     49  11  21 N10       30.45F
WRAY           SUNNY     50   8  18 NW7       30.45S
STERLING       SUNNY     48  19  32 CALM      30.43S
HOLYOKE        SUNNY     48  14  25 N6        30.45S
FORT MORGAN    SUNNY     48  19  31 SE5       30.43F
$$

COZ086-089-092>099-292300-
...SOUTHEAST COLORADO...

CITY           SKY/WX    TMP DP  RH WIND       PRES   REMARKS
PUEBLO         MOSUNNY   49  21  33 S9        30.44F
LA JUNTA       MOSUNNY   52  22  30 CALM      30.45F
LAMAR          SUNNY     54  19  25 N7        30.44F
SPRINGFIELD      N/A     49  19  30 N10       30.45S
$$


USA.gov is the U.S. government's official web portal to all federal, state and local government web resources and services.